Location: Unspecified
(4.7467°S, 0.0000°E)
Time: 04:36:30
(UTC+00:00)

Vanguard 2 - All Passes

Search period start: 04 April 2026 00:00
Search period end: 14 April 2026 00:00
Orbit: 554 x 2896 km, 32.9° (Epoch: 29 March)

Date Brightness Start Highest point End Pass type
(mag) Time Alt. Az. Time Alt. Az. Time Alt. Az.
4 Apr - 00:16:51 10° WNW 00:34:37 77° SW 00:49:35 10° SE visible
4 Apr - 02:32:54 10° W 02:47:00 32° SSW 02:57:36 10° SSE visible
4 Apr - 04:56:23 10° SW 04:59:52 12° SSW 05:02:57 10° S visible
4 Apr - 09:19:49 10° SSW 09:23:23 19° SSE 09:26:23 10° ESE daylight
4 Apr - 11:27:29 10° WSW 11:31:22 42° NW 11:35:17 10° NE daylight
4 Apr - 20:10:59 10° NNW 20:21:10 22° NE 20:33:10 10° ENE visible
4 Apr - 22:17:54 10° NW 22:33:52 60° NE 22:50:34 10° ESE visible
5 Apr - 00:29:06 10° WNW 00:46:35 64° SW 01:01:19 10° SE visible
5 Apr - 02:46:31 10° W 02:59:18 27° SSW 03:09:08 10° SSE visible
5 Apr - 05:11:04 10° SSW 05:12:41 10° SSW 05:14:14 10° S visible
5 Apr - 09:31:01 10° SSW 09:35:31 29° SSE 09:39:08 10° E daylight
5 Apr - 11:39:58 10° W 11:43:15 23° NW 11:46:33 10° NNE daylight
5 Apr - 20:21:54 10° NNW 20:33:23 29° NE 20:47:09 10° E visible
5 Apr - 22:29:30 10° NW 22:45:47 73° NE 23:02:50 10° ESE visible
6 Apr - 00:41:35 10° WNW 00:58:36 54° SSW 01:13:00 10° SE visible
6 Apr - 03:00:23 10° WSW 03:11:48 22° SSW 03:20:44 10° SSE visible
6 Apr - 05:24:57 10° S 05:25:34 10° S 05:26:11 10° S visible
6 Apr - 07:35:18 10° S 07:37:58 12° SSE 07:40:17 10° SE daylight
6 Apr - 09:42:31 10° SW 09:47:33 50° SSE 09:51:27 10° ENE daylight
6 Apr - 11:53:12 10° WNW 11:55:09 13° NNW 11:57:08 10° N daylight
6 Apr - 20:33:00 10° NNW 20:45:25 36° NE 21:00:36 10° E visible
6 Apr - 22:41:15 10° NW 22:57:42 86° NE 23:14:53 10° SE visible
7 Apr - 00:54:21 10° W 01:10:44 45° SSW 01:24:38 10° SE visible
7 Apr - 03:14:28 10° WSW 03:24:27 19° SSW 03:32:26 10° SSE visible
7 Apr - 05:36:27 10° SSW 05:38:28 11° S 05:40:19 10° S visible
7 Apr - 07:45:59 10° SSW 07:50:26 17° SSE 07:53:55 10° ESE daylight
7 Apr - 09:54:17 10° SW 09:59:28 89° SSE 10:03:27 10° NE daylight
7 Apr - 18:40:50 10° NNE 18:45:28 12° NE 18:50:42 10° NE visible
7 Apr - 20:44:16 10° NNW 20:57:20 45° NE 21:13:36 10° ESE visible
7 Apr - 22:53:11 10° WNW 23:09:38 81° SW 23:26:47 10° SE visible
8 Apr - 01:07:24 10° W 01:22:59 37° SSW 01:36:14 10° SE visible
8 Apr - 03:28:32 10° SW 03:37:16 17° SSW 03:44:21 10° SSE visible
8 Apr - 05:47:42 10° SSW 05:51:18 12° S 05:54:23 10° SSE daylight
8 Apr - 07:57:07 10° SSW 08:02:48 24° SSE 08:06:55 10° ESE daylight
8 Apr - 10:06:20 10° WSW 10:11:16 50° NW 10:15:09 10° NE daylight
8 Apr - 18:50:37 10° N 18:57:45 17° NE 19:06:28 10° ENE visible
8 Apr - 20:55:38 10° NW 21:09:10 55° NE 21:26:15 10° ESE visible
8 Apr - 23:05:18 10° WNW 23:21:38 68° SW 23:38:35 10° SE visible
9 Apr - 01:20:44 10° W 01:35:24 32° SSW 01:47:54 10° SSE visible
9 Apr - 03:42:24 10° SW 03:50:11 16° S 03:56:35 10° SSE visible
9 Apr - 05:58:58 10° SSW 06:04:04 15° S 06:08:09 10° SE daylight
9 Apr - 08:08:29 10° SW 08:15:03 35° SSE 08:19:30 10° E daylight
9 Apr - 10:18:44 10° W 10:23:00 28° NW 10:26:30 10° NNE daylight
9 Apr - 19:01:10 10° N 19:09:49 23° NE 19:20:59 10° E visible
9 Apr - 21:07:10 10° NW 21:20:59 68° NE 21:38:37 10° ESE visible
9 Apr - 23:17:38 10° WNW 23:33:43 57° SSW 23:50:18 10° SE visible
10 Apr - 01:34:19 10° WSW 01:47:59 27° SSW 01:59:38 10° SSE visible
10 Apr - 03:55:47 10° SW 04:03:11 15° S 04:09:14 10° SSE visible
10 Apr - 06:10:16 10° SSW 06:16:44 18° SSE 06:21:34 10° SE daylight
10 Apr - 08:20:03 10° SW 08:27:09 53° SSE 08:31:46 10° ENE daylight
10 Apr - 10:31:42 10° W 10:34:42 16° NW 10:37:21 10° N daylight
10 Apr - 19:12:02 10° NNW 19:21:42 30° NE 19:34:46 10° E visible
10 Apr - 21:18:50 10° NW 21:32:48 81° NE 21:50:45 10° ESE visible
10 Apr - 23:30:12 10° W 23:45:55 48° SSW 00:01:58 10° SE visible
11 Apr - 01:48:06 10° WSW 02:00:46 24° SSW 02:11:32 10° SSE visible
11 Apr - 04:08:37 10° SSW 04:16:10 16° S 04:22:14 10° SSE visible
11 Apr - 06:21:37 10° SSW 06:29:17 23° SSE 06:34:38 10° ESE daylight
11 Apr - 08:31:50 10° SW 08:39:06 84° SE 08:43:46 10° ENE daylight
11 Apr - 19:23:08 10° NNW 19:33:28 38° NE 19:48:01 10° ESE visible
11 Apr - 21:30:40 10° WNW 21:44:42 85° SW 22:02:43 10° SE visible
11 Apr - 23:43:02 10° W 23:58:16 41° SSW 00:13:38 10° SE visible
12 Apr - 02:01:56 10° WSW 02:13:41 21° SSW 02:23:38 10° SSE visible
12 Apr - 04:20:56 10° SSW 04:29:07 17° S 04:35:29 10° SE visible
12 Apr - 06:33:02 10° SW 06:41:43 31° SSE 06:47:24 10° E daylight
12 Apr - 08:43:50 10° WSW 08:50:54 62° NW 08:55:30 10° NE daylight
12 Apr - 17:32:39 10° NNE 17:35:09 11° NE 17:37:54 10° NE daylight
12 Apr - 19:34:24 10° NNW 19:45:11 49° NE 20:00:50 10° ESE visible
12 Apr - 21:42:40 10° WNW 21:56:42 71° SSW 22:14:33 10° SE visible
12 Apr - 23:56:08 10° W 00:10:46 35° SSW 00:25:21 10° SE visible
13 Apr - 02:15:38 10° SW 02:26:43 20° S 02:36:03 10° SSE visible
13 Apr - 04:32:53 10° SSW 04:41:58 20° S 04:48:45 10° SE visible
13 Apr - 06:44:33 10° SW 06:54:00 41° SSE 06:59:53 10° E daylight
13 Apr - 08:56:07 10° WSW 09:02:34 38° NW 09:06:57 10° NNE daylight
13 Apr - 17:41:38 10° N 17:47:07 16° NE 17:54:01 10° ENE daylight
13 Apr - 19:45:50 10° NW 19:56:52 61° NE 20:13:19 10° ESE visible
13 Apr - 21:54:52 10° WNW 22:08:48 60° SSW 22:26:17 10° SE visible
